This demonstration page uses our WeatherBlox Daily Observations layout. Learn more.

Left ArrowRight Arrow

Hourly Observations for November 20, 2019

Temp ( °F °C ) Dew Point ( °F °C ) Humidity (%) Winds ( mph kmh ) Pressure ( in mb ) Visibility ( mi km ) Precip ( " mm )
12:15 am 00:15 Cloudy 46 8 36 2 66 66 NNW 9 15 29.91 1013 10 16.0934 0 0
12:35 am 00:35 Cloudy 46 8 36 2 66 66 NNW 7 11 29.91 1013 10 16.0934 0 0
12:55 am 00:55 Cloudy 46 8 36 2 66 66 NNW 7 11 29.91 1013 10 16.0934 0 0
1:15 am 01:15 Cloudy 46 8 36 2 66 66 N 5 7 29.92 1013 10 16.0934 0 0
1:35 am 01:35 Cloudy 46 8 36 2 66 66 N 6 9 29.92 1013 10 16.0934 0 0
1:55 am 01:55 Cloudy 46 8 36 2 66 66 NNW 9 15 29.93 1014 10 16.0934 0 0
2:15 am 02:15 Cloudy 46 8 36 2 66 66 NNW 9 15 29.94 1014 10 16.0934 0 0
2:35 am 02:35 Cloudy 45 7 36 2 71 71 NNW 8 13 29.94 1014 10 16.0934 0 0
2:55 am 02:55 Cloudy 45 7 36 2 71 71 NNW 10 17 29.94 1014 10 16.0934 0 0
3:15 am 03:15 Cloudy 45 7 36 2 71 71 NNW 8 13 29.95 1014 10 16.0934 0 0
3:35 am 03:35 Cloudy 45 7 36 2 71 71 N 8 13 29.95 1014 10 16.0934 0 0
3:55 am 03:55 Cloudy 45 7 36 2 71 71 N 6 9 29.96 1015 10 16.0934 0 0
4:15 am 04:15 Cloudy 45 7 36 2 71 71 N 6 9 29.96 1015 10 16.0934 0 0
4:35 am 04:35 Cloudy 45 7 36 2 71 71 N 5 7 29.97 1015 10 16.0934 0 0
4:55 am 04:55 Cloudy 45 7 36 2 71 71 Calm 29.97 1015 10 16.0934 0 0
5:15 am 05:15 Cloudy 45 7 37 3 76 76 NNW 6 9 29.98 1015 10 16.0934 0 0
5:35 am 05:35 Cloudy 45 7 37 3 76 76 NW 6 9 29.98 1015 10 16.0934 0 0
5:55 am 05:55 Cloudy 45 7 37 3 76 76 NW 8 13 29.99 1016 10 16.0934 0 0
6:15 am 06:15 Cloudy 45 7 37 3 76 76 NW 10 17 30 1016 10 16.0934 0 0
6:35 am 06:35 Cloudy 45 7 37 3 76 76 NW 10 17 30.01 1016 10 16.0934 0 0
6:55 am 06:55 Cloudy 45 7 37 3 76 76 NW 12 19 30.02 1017 10 16.0934 0 0
7:15 am 07:15 Cloudy 45 7 37 3 76 76 NW 14 22 30.03 1017 10 16.0934 0 0
7:35 am 07:35 Cloudy 45 7 37 3 76 76 NW 15 24 30.03 1017 10 16.0934 0 0
7:55 am 07:55 Cloudy 45 7 37 3 76 76 NNW 9 15 30.04 1017 10 16.0934 0 0
8:15 am 08:15 Cloudy 45 7 37 3 76 76 N 7 11 30.06 1018 10 16.0934 0 0
8:35 am 08:35 Cloudy 45 7 37 3 76 76 NNW 9 15 30.07 1018 10 16.0934 0 0
8:55 am 08:55 Cloudy 46 8 37 3 71 71 NNW 13 20 30.07 1018 10 16.0934 0 0
9:15 am 09:15 Cloudy 46 8 37 3 71 71 NW 13 20 30.07 1018 10 16.0934 0 0
9:35 am 09:35 Cloudy 46 8 37 3 71 71 NNW 17 28 30.08 1019 10 16.0934 0 0
9:55 am 09:55 Cloudy 46 8 37 3 71 71 NW 17 28 30.09 1019 10 16.0934 0 0
10:15 am 10:15 Cloudy 46 8 37 3 71 71 NW 15 24 30.1 1019 10 16.0934 0 0
10:35 am 10:35 Cloudy 46 8 39 4 76 76 NNW 13 20 30.1 1019 10 16.0934 0 0
10:55 am 10:55 Cloudy 46 8 37 3 71 71 NW 14 22 30.1 1019 10 16.0934 0 0
11:15 am 11:15 Cloudy 48 9 37 3 66 66 N 15 24 30.1 1019 10 16.0934 0 0
11:35 am 11:35 Cloudy 48 9 37 3 66 66 NNW 15 24 30.1 1019 10 16.0934 0 0
11:55 am 11:55 Cloudy 50 10 37 3 62 62 NNW 17 28 30.1 1019 10 16.0934 0 0
12:15 pm 12:15 Cloudy 50 10 37 3 62 62 N 17 28 30.09 1019 10 16.0934 0 0
12:35 pm 12:35 Cloudy 50 10 37 3 62 62 N 12 19 30.1 1019 10 16.0934 0 0
12:55 pm 12:55 Cloudy 50 10 37 3 62 62 N 16 26 30.1 1019 10 16.0934 0 0
1:35 pm 13:35 Cloudy 50 10 36 2 58 58 NNW 13 20 30.1 1019 10 16.0934 0 0
1:55 pm 13:55 Cloudy 50 10 36 2 58 58 N 14 22 30.1 1019 10 16.0934 0 0
2:15 pm 14:15 Cloudy 50 10 36 2 58 58 NNW 13 20 30.11 1020 10 16.0934 0 0
2:35 pm 14:35 Cloudy 50 10 36 2 58 58 N 12 19 30.11 1020 10 16.0934 0 0
2:55 pm 14:55 Cloudy 50 10 36 2 58 58 NNW 12 19 30.12 1020 10 16.0934 0 0
3:15 pm 15:15 Cloudy 50 10 34 1 54 54 N 9 15 30.13 1020 10 16.0934 0 0
3:35 pm 15:35 Cloudy 48 9 34 1 58 58 N 10 17 30.14 1021 10 16.0934 0 0
3:55 pm 15:55 Cloudy 48 9 34 1 58 58 NNW 9 15 30.15 1021 10 16.0934 0 0
4:15 pm 16:15 Cloudy 48 9 34 1 58 58 NNW 10 17 30.15 1021 10 16.0934 0 0
4:35 pm 16:35 Cloudy 48 9 36 2 62 62 NNW 6 9 30.16 1021 10 16.0934 0 0
4:55 pm 16:55 Cloudy 48 9 34 1 58 58 NNW 7 11 30.16 1021 10 16.0934 0 0
5:15 pm 17:15 Cloudy 46 8 34 1 62 62 NNW 7 11 30.16 1021 10 16.0934 0 0
5:35 pm 17:35 Cloudy 46 8 34 1 62 62 NW 7 11 30.17 1022 10 16.0934 0 0
5:55 pm 17:55 Cloudy 46 8 34 1 62 62 NW 8 13 30.19 1022 10 16.0934 0 0
6:15 pm 18:15 Cloudy 46 8 34 1 62 62 NW 9 15 30.19 1022 10 16.0934 0 0
6:35 pm 18:35 Cloudy 46 8 34 1 62 62 NW 13 20 30.19 1022 10 16.0934 0 0
6:55 pm 18:55 Cloudy 46 8 34 1 62 62 NW 14 22 30.2 1023 10 16.0934 0 0
7:15 pm 19:15 Cloudy 46 8 34 1 62 62 NNW 13 20 30.21 1023 10 16.0934 0 0
7:35 pm 19:35 Cloudy 46 8 34 1 62 62 NNW 9 15 30.22 1023 10 16.0934 0 0
7:55 pm 19:55 Cloudy 46 8 34 1 62 62 NNW 10 17 30.22 1023 10 16.0934 0 0
8:15 pm 20:15 Cloudy 46 8 34 1 62 62 NNW 13 20 30.23 1024 10 16.0934 0 0
8:35 pm 20:35 Cloudy 46 8 34 1 62 62 N 15 24 30.23 1024 10 16.0934 0 0
8:55 pm 20:55 Cloudy 46 8 32 0 57 57 N 10 17 30.24 1024 10 16.0934 0 0
9:15 pm 21:15 Cloudy 46 8 32 0 57 57 N 10 17 30.24 1024 10 16.0934 0 0
9:35 pm 21:35 Cloudy 46 8 32 0 57 57 N 9 15 30.24 1024 10 16.0934 0 0
9:55 pm 21:55 Cloudy 46 8 32 0 57 57 N 12 19 30.24 1024 10 16.0934 0 0
10:15 pm 22:15 Cloudy 45 7 32 0 61 61 N 8 13 30.24 1024 10 16.0934 0 0
10:35 pm 22:35 Cloudy 45 7 32 0 61 61 N 10 17 30.24 1024 10 16.0934 0 0
10:55 pm 22:55 Partly Cloudy 45 7 32 0 61 61 NNW 8 13 30.24 1024 10 16.0934 0 0
11:15 pm 23:15 Mostly Cloudy 43 6 32 0 66 66 NNW 8 13 30.25 1024 10 16.0934 0 0
11:35 pm 23:35 Cloudy 45 7 34 1 66 66 N 6 9 30.26 1025 10 16.0934 0 0
11:55 pm 23:55 Cloudy 45 7 32 0 61 61 NNW 9 15 30.25 1024 10 16.0934 0 0

Powered by AerisWeather